User: anonymous   Login
Location: Unspecified
(0.0000°N, 0.0000°E)
Time: 21:25:13
(UTC+00:00)
Language:

ESSA 6 - Orbit

View from above orbital plane
View from above orbital plane
View from above satellite
View from above satellite

Ground track
Ground track

The orbit data is extracted from the following two-line orbital elements,

1  3035U 67114A   18264.88755729 -.00000045 +00000-0 +15450-4 0  9991
2  3035 102.2539 266.5124 0048964 090.7472 332.4318 12.54217109328404
Epoch (UTC): 21 September 2018 21:18:04
Eccentricity: 0.0048964
inclination: 102.2539°
perigee height: 1408 km
apogee height: 1485 km
right ascension of ascending node: 266.5124°
argument of perigee: 90.7472°
revolutions per day: 12.54217109
mean anomaly at epoch: 332.4318°
orbit number at epoch: 32840

The dashed part of the orbit path shows where the satellite is in the earth's shadow,  

DLR